Home > Weather > Saint John > Past weeks

Flag for Canada Past Weather in Saint John, New Brunswick, Canada — Yesterday and Last 2 Weeks

Now
73 °F

Partly sunny.


Feels Like: 77 °F
Forecast: 52 / 71 °F
Wind: 8 mph from South

Location: Saint John

Current Time: Aug 28, 2016 at 3:57:31 PM

Latest Report: Aug 28, 2016 at 3:00 PM


Visibility: 15 mi

Pressure: 30.28 "Hg

Humidity: 47%

Dew Point: 52 °F

Location of Saint JohnLocation

Past Weather in Saint John — Graph

°F

Saint John Temperature Yesterday

Maximum temperature yesterday: 77 °F (at 2:00 PM)
Minimum temperature yesterday: 55 °F (at 11:00 PM)
Average temperature yesterday: 66 °F

High & Low Weather Summary for the Past Weeks

 TemperatureHumidityPressure
High81 °F (Aug 18, 1:00 PM)100% (Aug 14, 12:00 AM)30.33 "Hg (Aug 14, 12:00 AM)
Low46 °F (Aug 28, 3:00 AM)39% (Aug 23, 2:00 PM)29.71 "Hg (Aug 22, 5:00 PM)
Average64 °F87%30.00 "Hg
* Reported Aug 13 2:00 PM — Aug 28 2:00 PM, Saint John, Weather by CustomWeather, © 2016

Note: Actual official high and low records may vary slightly from our data, if they occured in-between our weather recording intervals... More about our weather records

Advertising

Saint John Weather History for the Previous 24 Hours

Scroll right to see more
 ConditionsComfort  
Time TempWeatherWind HumidityBarometerVisibility
2:00 PM
Sun, Aug 28
70 °FPartly sunny.10 mph53%30.30 "Hg15 mi
1:00 PM73 °FPartly sunny.8 mph53%30.30 "Hg15 mi
12:00 PM72 °FPartly sunny.9 mph61%30.31 "Hg15 mi
11:00 AM70 °FBroken clouds.5 mph64%30.32 "Hg15 mi
10:00 AM64 °FPartly sunny.No wind88%30.32 "Hg15 mi
9:00 AM59 °FPartly sunny.No wind100%30.33 "Hg15 mi
8:00 AM55 °FBroken clouds.5 mph100%30.33 "Hg15 mi
7:00 AM46 °FFog.2 mph100%30.32 "Hg15 mi
6:00 AM46 °FFog.5 mph100%30.30 "Hg15 mi
5:00 AM46 °FFog.3 mph100%30.30 "Hg15 mi
4:00 AM46 °FFog.No wind100%30.29 "Hg15 mi
3:00 AM46 °FClear.No wind100%30.29 "Hg15 mi
2:00 AM48 °FClear.No wind100%30.29 "Hg15 mi
1:00 AM50 °FClear.No wind100%30.29 "Hg15 mi
12:00 AM52 °FClear.No wind100%30.27 "Hg15 mi
11:00 PM
Sat, Aug 27
55 °FClear.No wind100%30.27 "Hg15 mi
10:00 PM59 °FClear.No wind100%30.25 "Hg15 mi
9:00 PM64 °FPassing clouds.No wind83%30.23 "Hg15 mi
8:00 PM68 °FPassing clouds.3 mph73%30.21 "Hg15 mi
7:00 PM73 °FPassing clouds.9 mph61%30.18 "Hg15 mi
6:00 PM75 °FPassing clouds.9 mph57%30.16 "Hg15 mi
5:00 PM73 °FScattered clouds.9 mph61%30.15 "Hg15 mi
4:00 PM77 °FScattered clouds.15 mph51%30.14 "Hg15 mi
3:00 PM75 °FBroken clouds.12 mph57%30.13 "Hg15 mi
Weather by CustomWeather, © 2016

See weather overviewHow to use our weather pages